{"data":{"norad_id":29643,"intl_designator":"2006-054A","name":"WILDBLUE-1","alt_names":[],"object_type":"PAYLOAD","status":"ACTIVE","operator":null,"country":"US","launch_date":"2006-12-08","launch_site_code":"FRGUI","launch_vehicle":null,"mission":null,"orbit_class":"UNKNOWN","rcs_meters":262.6219,"size_class":null,"mass_kg":null,"dimensions":null,"purposes":["comms"],"wikipedia_slug":null,"has_3d_model":false,"image_url":null,"decayed_at":null,"tle_current":{"epoch":"2026-05-25T03:12:55.852128Z","epoch_age_seconds":59368,"freshness":"FRESH","line1":"1 29643U 06054A   26145.13397977 -.00000051  00000+0  00000+0 0  9998","line2":"2 29643   2.7460  80.7625 0001569 339.1782 119.8122  1.00272296 53569","mean_motion":1.00272296,"eccentricity":0.0001569,"inclination_deg":2.746,"raan_deg":80.7625,"arg_perigee_deg":339.1782,"mean_anomaly_deg":119.8122,"bstar":0,"rev_number":5356,"period_min":1436.0895855023,"perigee_km":35779.836085981,"apogee_km":35793.067333918,"semimajor_km":42164.588709949,"source":"CELESTRAK","updated_at":"2026-05-25T13:38:13.853848Z"}}}